CZ-3C R/B, 43875

Orbit data source: Space-Track

CZ-3C R/B, 43875 is space debris in HEO originally from a launch on Mon, 24 Dec 2018 UTC launched from the Xichang Space Center, China (XSC). Debris objects in space refer to the collection of defunct objects orbiting the Earth. Examples of debris include non-operational satellites, rocket bodies, and fragments generated from explosions, collisions, or faulty payload assembly.

Loading next visibility...
Identifier
43875, 2018-110B
Orbit
HEO
Country
Flag of CNCN / PRC
Related business
Manufacturer
CALT
Mission
Spacecraft
Bus & Motor
CZ-3A STAGE 3, Unknown motor
Mass
~2,800 kg wet, ~2,800 kg dry
Launch date (UTC)
2018-12-24 (7 years ago)
Launch vehicle
Unknown
Launch site
Xichang Space Center, China (XSC)
Object type
Payload
Rocket body
Debris
Shape & HBR
Cyl + 1 Nozzle, 6.2 m
Radar Cross Section
32.704 m², Large (>1 m²)

Expand to show TLE details & history
Last TLE update: 1 day ago

TLE from 1 day ago
0 CZ-3C R/B
1 43875U 18110B   25308.28244024  .00016088  00000-0  14671-2 0  9996
2 43875  28.2765 328.0221 6619215 168.5574 221.0916  3.18145914 65348
Epoch: 2025-11-04T06:46Z
TLE epoch observation values (Epoch: 2025-11-04T06:46:42.836Z)
Latitude
0.00001°
Longitude
-177.42407°
Altitude
24,847.303 km
Speed
2.263 km/s
True Right ascension
21h 52m 06s
True Declination
0° 00' 00"
Sunlit
Object was in daylight at epoch
Visualization orbit readout
Latitude
Unknown
Longitude
Unknown
Altitude
Unknown
Speed
Unknown
Apparent Right ascension
Unknown
Apparent Declination
Unknown
Sunlit
N/A
Visualization observer readout
Local Sidereal Time
06:19:36
Azimuth
Unknown
Elevation
Unknown
Doppler factor
Unknown
Orbital elements
Apogee altitude
26,081.281 km
Perigee altitude
224.961 km
Semi-major axis
19,531.258 km
Eccentricity
0.66192
Inclination
28.2765°
RAAN
328.0221°
Arg. of periapsis
168.5574°
True anomaly
191.43876°
Mean anomaly
221.0916°
Eccentric anomaly
205.0398°
Mean motion
0.79515 °/min
Orbital period
452.75 mins
BSTAR
0.0014671
Loading maneuver chart data...
Computing Atmospheric mass density...
Loading historical data...
Loading historical data...
Loading historical data...
Loading historical data...
Loading historical data...
Loading historical data...
Loading historical data...
Other satellites on launch #110 in the year 2018 (2018-12-24 UTC)

Documentation

Showing up to 5 results
|